{"data":{"norad_id":65186,"epoch":"2026-09-20T20:53:18.156192Z","epoch_age_seconds":88909,"freshness":"FRESH","line1":"1 65186U 25175N   26263.87034903  .00012215  00000+0  38006-3 0  9999","line2":"2 65186  97.2845 132.9074 0001628  95.5032 264.6397 15.33444430 62196","mean_motion":15.3344443,"eccentricity":0.0001628,"inclination_deg":97.2845,"raan_deg":132.9074,"arg_perigee_deg":95.5032,"mean_anomaly_deg":264.6397,"bstar":0.00038006,"rev_number":6219,"period_min":93.906239562917,"perigee_km":464.43071898913,"apogee_km":466.65902180613,"semimajor_km":6843.6818703976,"source":"CELESTRAK","updated_at":"2026-09-21T09:00:35.530037Z"}}